Overview Statistics Trail Chart Weather Telemetry Raw packets
 

This is the latest recevied weather packets stored in our database for station/object K4DNM. If no packets are shown the sender has not sent any weather packets the latest 10 day(s).

<< 96 97 98 99 100 101 102 >>
Time Temp. Humidity Pressure Rain* Wind** Luminosity Snow
1787840302 26.67° C 82% 1015.5 hPa 0 mm - 216 W/m² -
1787840060 26.67° C 83% 1015.5 hPa 0 mm - 205 W/m² -
1787839702 26.67° C 83% 1015.5 hPa 0 mm - 186 W/m² -
1787839403 26.67° C 83% 1015.5 hPa 0 mm - 191 W/m² -
1787839096 26.67° C 83% 1015.4 hPa 0 mm - 261 W/m² -
1787838797 27.22° C 82% 1015.4 hPa 0 mm - 222 W/m² -
1787838495 27.78° C 80% 1015.3 hPa 0 mm - 255 W/m² -
1787838194 27.22° C 80% 1015.2 hPa 0 mm - 438 W/m² -
1787837890 26.67° C 83% 1015.3 hPa 0 mm - 306 W/m² -
1787837594 26.67° C 83% 1015.3 hPa 0 mm - 188 W/m² -
1787837290 26.11° C 85% 1015.4 hPa 0 mm - 161 W/m² -
1787836991 26.11° C 84% 1015.4 hPa 0 mm - 455 W/m² -
1787836684 26.11° C 84% 1015.4 hPa 0 mm - 380 W/m² -
1787836444 26.11° C 83% 1015.4 hPa 0 mm - 323 W/m² -
1787836085 26.67° C 84% 1015.5 hPa 0 mm - 148 W/m² -
1787835842 26.67° C 83% 1015.5 hPa 0 mm - 305 W/m² -
1787835479 26.67° C 81% 1015.4 hPa 0 mm - 211 W/m² -
1787835179 26.67° C 82% 1015.4 hPa 0 mm - 297 W/m² -
1787834881 26.11° C 85% 1015.4 hPa 0 mm - 265 W/m² -
1787834575 25.56° C 86% 1015.5 hPa 0 mm - 246 W/m² -
1787834276 25° C 87% 1015.4 hPa 0 mm - 220 W/m² -
1787833975 25° C 87% 1015.4 hPa 0 mm - 212 W/m² -
1787833673 24.44° C 88% 1015.4 hPa 0 mm - 207 W/m² -
1787833432 24.44° C 89% 1015.4 hPa 0 mm - 184 W/m² -
1787833073 23.89° C 91% 1015.5 hPa 0 mm - 164 W/m² -

* Rain latest hour (hover to see other rain measurements)
** Current wind speed in m/s (hover to see current wind gust speed)